Regional Weather Roundup
Issued by NWS

Home | Current Version | Previous Version | Graphics & Text | Print | Product List | Glossary On
Versions: 1 2 3 4 5 6 7 8 9 10 11 12 13 14 15 16 17 18 19 20 21 22 23 24 25 26 27 28 29 30 31 32 33 34 35 36 37 38 39 40 41 42 43 44 45 46 47 48 49 50
769
ASUS45 KCYS 211410
RWRWY

WYOMING REGIONAL WEATHER ROUNDUP
NATIONAL WEATHER SERVICE CHEYENNE WY
800 AM MDT THU SEP 21 2017

NOTE:  "FAIR" INDICATES FEW OR NO CLOUDS BELOW 12,000 FEET
WITH NO SIGNIFICANT WEATHER AND/OR OBSTRUCTIONS TO VISIBILITY.

WYZ001-211500-
YELLOWSTONE NATIONAL PARK

CITY           SKY/WX    TMP DP  RH WIND       PRES   REMARKS
LK YELLOWSTONE NOT AVBL
W YELLOWSTONE  NOT AVBL

$$
WYZ002>013-054>058-071-098>099-211500-
NORTHERN WYOMING

CITY           SKY/WX    TMP DP  RH WIND       PRES   REMARKS
JACKSON        CLOUDY    34  32  93 CALM      29.80S
CODY           LGT RAIN  42  40  92 NE8       29.76R
GREYBULL       CLOUDY    50  46  86 NW7       29.70S
WORLAND        CLOUDY    51  45  79 CALM      29.73R
SHERIDAN       PTSUNNY   49  41  74 NW12      29.76R
BUFFALO        FAIR      48  37  65 N10       29.77R
GILLETTE       FAIR      50  37  61 N15       29.73R
HULETT         FAIR      52  36  54 N6        29.73R
NEWCASTLE      FAIR      59  32  36 E15       29.70R

$$
WYZ014>020-022>026-101>103-211500-
CENTRAL WYOMING

CITY           SKY/WX    TMP DP  RH WIND       PRES   REMARKS
BIG PINEY      MOCLDY    33  32  96 NW5       29.79R WCI  29
PINEDALE       CLOUDY    37  36  93 CALM      29.80R
DUBOIS         CLOUDY    36  34  93 W3        29.76S
LANDER           N/A    N/A N/A N/A MISG      29.72R
RIVERTON       FAIR      40  38  93 NE6       29.72R
CASPER         FAIR      45  35  68 NW10      29.75R
DOUGLAS        FAIR      58  31  35 SE9       29.71S

$$
WYZ021-027>030-104>119-211500-
SOUTHERN WYOMING

CITY           SKY/WX    TMP DP  RH WIND       PRES   REMARKS
EVANSTON       FAIR      43  37  79 CALM      29.77S
KEMMERER         N/A     36  36 100 NW7       29.79S WCI  30
FORT BRIDGER   FAIR      42  41  97 NE5       29.80S
ROCK SPRINGS   FAIR      53  33  46 VRB5      29.78R
DIXON          FAIR      61  27  27 S25G31    29.85S
RAWLINS        FAIR      58  30  34 SW20G25   29.81R
SARATOGA       FAIR      61  27  27 SE10G22   29.84R
LARAMIE        FAIR      56  26  31 S14       29.86R
CHEYENNE       FAIR      55  34  45 CALM      29.82S
TORRINGTON     FAIR      50  39  66 E9        29.72R
PINE BLUFFS    FAIR      41  34  75 MISG      29.80S

$$




USA.gov is the U.S. government's official web portal to all federal, state and local government web resources and services.